Tracking 17630 objects as of 24-May-2016
HD Live streaming from Space Station
objects crossing your sky now

SL-8 DEB

Track SL-8 DEB now!
10-day predictions


NORAD ID: 18545
Int'l Code: 1986-100C
Perigee: 890.3 km
Apogee: 911.5 km
Inclination: 82.9 °
Period: 102.9 minutes
Semi major axis: 7271 km
RCS: 0.0131 m2 (small)
Launch date: December 17, 1986
Source: Commonwealth of Independent States (former USSR) (CIS)
Launch site: PLESETSK MISSILE AND SPACE COMPLEX (PKMTR)

Note: This is SATELLITE DEBRIS
Your satellite tracking list
Your tracking list is empty





NASA's NSSDC Master Catalog

Two Line Element Set (TLE):
1 18545U 86100C   16145.38735706  .00000687  00000-0  44039-3 0  9998
2 18545  82.9262 122.7951 0014557 176.4172 337.5685 14.01927979489479
Source of the keplerian elements: AFSPC

N2YO: 456